Regional Weather Roundup
Issued by NWS

Home | Current Version | Previous Version | Text Only | Print | Product List | Glossary Off
Versions: 1 2 3 4 5 6 7 8 9 10 11 12 13 14 15 16 17 18 19 20 21 22 23 24 25 26 27 28 29 30 31 32 33 34 35 36 37 38 39 40 41 42 43 44 45 46 47 48 49 50

000
ASUS43 KOAX 070702
RWRNE

WEATHER ROUNDUP FOR NEBRASKA
NATIONAL WEATHER SERVICE OMAHA NE
200 AM CDT TUE JUL 07 2015

NOTES: SATELLITE DATA IS BEING USED TO AUGMENT CLOUD COVER ABOVE
       12000 FEET.
       "FAIR" INDICATES FEW OR NO CLOUDS BELOW 12,000 FEET WITH NO
       SIGNIFICANT WEATHER AND/OR OBSTRUCTIONS TO VISIBILITY.

  * THESE STATIONS DO NOT REPORT WEATHER SUCH AS RAIN...SNOW OR FOG.

NEZ001>004-019>022-054>056-070800-
NEBRASKA PANHANDLE

CITY           SKY/WX    TMP DP  RH WIND       PRES   REMARKS
SCOTTSBLUFF    CLOUDY    63  55  75 SE7       30.24S HAZE
ALLIANCE       CLOUDY    58  55  90 S6        30.23F
CHADRON        CLOUDY    60  56  86 E3        30.21S
KIMBALL          N/A    N/A N/A N/A MISG        N/A
SIDNEY         CLOUDY    60  54  80 SE6       30.27S HAZE
$$

NEZ057>060-069>072-079>082-070800-
SOUTHWEST NEBRASKA

CITY           SKY/WX    TMP DP  RH WIND       PRES   REMARKS
NORTH PLATTE   CLEAR     57  52  83 NE6       30.20S
IMPERIAL       MOCLDY    62  53  72 NE6       30.22F
LEXINGTON      CLEAR     56  54  91 N6        30.18S
MCCOOK         MOCLDY    59  54  83 N3        30.20R HAZE
$$

NEZ005>010-023>029-035>040-094-070800-
NORTH CENTRAL NEBRASKA

CITY           SKY/WX    TMP DP  RH WIND       PRES   REMARKS
VALENTINE      CLEAR     55  54  96 CALM      30.19F
AINSWORTH      CLEAR     59  56  91 CALM      30.20R
BROKEN BOW     CLEAR     55  52  89 N6        30.18F FOG
ORD            CLEAR     53  51  93 NW7       30.16S FOG
$$

NEZ041-046>049-061>064-073>077-083>087-070800-
SOUTH CENTRAL NEBRASKA

CITY           SKY/WX    TMP DP  RH WIND       PRES   REMARKS
GRAND ISLAND   CLEAR     59  55  87 N8        30.15R FOG
AURORA         CLEAR     59  58  97 N8        30.13S FOG
HASTINGS       CLEAR     60  55  83 NE8       30.13S HAZE
KEARNEY *      CLEAR     57  52  82 N8        30.15F
$$

NEZ011>018-030>034-042>045-070800-
NORTHEAST NEBRASKA

CITY           SKY/WX    TMP DP  RH WIND       PRES   REMARKS
NORFOLK        CLEAR     59  56  89 CALM      30.15R FOG
BLAIR          CLEAR     61  51  69 N15       30.08S
FREMONT        CLEAR     60  54  78 N7        30.11S
TEKAMAH        CLEAR     57  54  89 N6        30.11R
$$

NEZ050>053-065>068-078-088>093-070800-
SOUTHEAST NEBRASKA

CITY           SKY/WX    TMP DP  RH WIND       PRES   REMARKS
LINCOLN        CLEAR     62  56  80 N8        30.10R HAZE
OMAHA EPPLEY   CLEAR     61  55  81 N10       30.07S
FALLS CITY     CLOUDY    67  61  81 N8        30.02R HAZE
PLATTSMOUTH    CLEAR     63  53  69 N6G17     30.07S
$$

NEZ044-045-051>053-067-070800-
OMAHA AREA

CITY           SKY/WX    TMP DP  RH WIND       PRES   REMARKS
OMAHA EPPLEY   CLEAR     61  55  81 N10       30.07S
BLAIR          CLEAR     61  51  69 N15       30.08S
FREMONT        CLEAR     60  54  78 N7        30.11S
MILLARD        CLEAR     64  55  72 N7        30.07F
OFFUTT AFB       N/A     64  53  66 N8        30.06S
PLATTSMOUTH    CLEAR     63  53  69 N6G17     30.07S
$$


USA.gov is the U.S. government's official web portal to all federal, state and local government web resources and services.